This demonstration page uses our WeatherBlox Daily Observations layout. Learn more.

Left ArrowRight Arrow

41.55636, -103.73856

Hourly Observations for May 20, 2020

Temp ( °F °C ) Dew Point ( °F °C ) Humidity (%) Winds ( mph kmh ) Pressure ( in mb ) Visibility ( mi km ) Precip ( " mm )
7:58 pm 19:58 Partly Cloudy 73 22.8 55 12.9 54 54 SSE 28 44 29.71 1006 10 16 0.00 0.00
8:58 pm 20:58 Mostly Cloudy 71 21.5 54 12.4 56 56 SSE 30 48 29.70 1006 10 16 0.00 0.00
9:58 pm 21:58 Clear 69 20.4 55 12.5 61 61 SSE 30 48 29.70 1006 10 16 0.00 0.00
10:58 pm 22:58 Mostly Cloudy 67 19.5 55 12.5 64 64 SSE 23 37 29.71 1006 10 16 0.00 0.00
11:58 pm 23:58 Mostly Cloudy 65 18.4 54 12.1 67 67 SSE 31 50 29.71 1006 10 16 0.00 0.00
12:59 am 00:59 Mostly Cloudy 64 17.5 54 12 70 70 SSE 24 39 29.71 1006 10 16 0.00 0.00
1:58 am 01:58 Mostly Cloudy 60 15.8 53 11.7 77 77 SE 13 20 29.70 1006 10 16 0.00 0.00
2:58 am 02:58 Mostly Cloudy 58 14.7 52 11.1 79 79 ESE 17 28 29.69 1006 10 16 0.00 0.00
3:58 am 03:58 Partly Cloudy 56 13.4 50 10.2 81 81 SE 17 28 29.70 1006 10 16 0.00 0.00
4:58 am 04:58 Mostly Cloudy 56 13.6 51 10.6 82 82 SSE 21 33 29.69 1005 10 16 0.00 0.00
5:58 am 05:58 Sunny 58 14.3 51 10.4 78 78 S 15 24 29.70 1006 10 16 0.00 0.00
6:58 am 06:58 Sunny 60 15.8 54 12.1 79 79 S 25 41 29.66 1005 10 16 0.00 0.00
7:58 am 07:58 Sunny 64 17.6 55 12.7 73 73 S 25 41 29.67 1005 10 16 0.00 0.00
8:58 am 08:58 Sunny 67 19.3 54 12.4 65 65 S 29 46 29.67 1005 10 16 0.00 0.00
9:58 am 09:58 Sunny 70 21.2 55 12.6 58 58 S 28 44 29.66 1004 10 16 0.00 0.00
10:58 am 10:58 Mostly Sunny 72 22.3 54 12.2 53 53 SSE 28 44 29.66 1004 10 16 0.00 0.00
11:58 am 11:58 Sunny 72 22.3 55 12.7 55 55 S 31 50 29.64 1004 10 16 0.00 0.00
12:58 pm 12:58 Sunny 76 24.6 54 12.1 46 46 SSE 35 56 29.61 1003 10 16 0.00 0.00
1:58 pm 13:58 Sunny 78 25.6 54 12 43 43 SSE 36 57 29.57 1002 10 16 0.00 0.00
2:58 pm 14:58 Sunny 80 26.6 52 11 38 38 SSE 29 46 29.57 1001 10 16 0.00 0.00
3:58 pm 15:58 Sunny 81 27.2 48 8.8 31 31 SSE 31 50 29.55 1001 10 16 0.00 0.00
4:58 pm 16:58 Sunny 80 26.9 52 10.9 37 37 SSE 32 52 29.55 1001 10 16 0.00 0.00
5:58 pm 17:58 Sunny 76 24.5 53 11.8 45 45 SSE 39 63 29.54 1000 10 16 0.00 0.00

Powered by AerisWeather